Date String (YYYY-MM-DD hh:mm:ss) UTC,Instrument flags,Ambient pressure (hPa),Sample flow (lpm),Bypass flow (lpm),Sample temperature (°C),Ambient temperature (°C),ASC tube jacket temperature (°C),LED temperature (°C),Box temperature (°C),Sample RH (%),Span deviation,Mass concentration (μg/m³),Mass concentration (μg/m³),Mass concentration (μg/m³)
DateTimeUTC,F1_M11,P_M11,Q1_M11,Q2_M11,T1_M11,T2_M11,T3_M11,T4_M11,T5_M11,U1_M11,ZSPAN_M11,X0_M11,X2_M11,X1_M11
2023-01-12 20:00:00,,0832.4,5.00,0.00,25.5,24.3,00.0,34.3,27.4,14.4,-001.1,0022.65,0015.16,0014.47
2023-01-12 20:01:00,,0832.3,4.99,0.00,25.6,24.4,00.0,34.3,27.4,15.1,-001.1,0022.87,0015.25,0014.51
2023-01-12 20:02:00,,0832.3,5.01,0.00,25.6,24.4,00.0,34.3,27.4,14.9,-001.0,0022.84,0015.29,0014.56
2023-01-12 20:03:00,,0832.3,5.01,0.00,25.6,24.4,00.0,34.3,27.4,14.6,-001.0,0023.48,0015.42,0014.68
2023-01-12 20:04:00,,0832.3,4.99,0.00,25.6,24.4,00.0,34.3,27.4,14.6,-001.0,0023.40,0015.49,0014.79
2023-01-12 20:05:00,,0832.3,5.01,0.00,25.6,24.4,00.0,34.3,27.5,14.5,-001.1,0023.28,0015.61,0014.93
2023-01-12 20:06:00,,0832.2,5.00,0.00,25.6,24.4,00.0,34.3,27.5,14.4,-001.2,0023.37,0015.72,0015.05
2023-01-12 20:07:00,,0832.3,4.99,0.00,25.6,24.4,00.0,34.3,27.4,14.8,-001.1,0023.89,0015.92,0015.23
2023-01-12 20:08:00,,0832.3,5.00,0.00,25.6,24.4,00.0,34.3,27.4,15.0,-001.0,0024.58,0016.09,0015.38
2023-01-12 20:09:00,,0832.2,4.99,0.00,25.6,24.4,00.0,34.4,27.5,15.0,-001.0,0024.91,0016.28,0015.56
2023-01-12 20:10:00,,0832.3,5.00,0.00,25.6,24.4,00.0,34.4,27.4,15.2,-001.0,0025.45,0016.51,0015.74
2023-01-12 20:11:00,,0832.3,5.00,0.00,25.6,24.4,00.0,34.4,27.4,14.8,-001.0,0025.72,0016.67,0015.89
2023-01-12 20:12:00,,0832.3,5.00,0.00,25.6,24.4,00.0,34.4,27.4,15.0,-001.1,0025.90,0016.80,0015.98
2023-01-12 20:13:00,,0832.3,5.00,0.00,25.6,24.4,00.0,34.4,27.4,14.9,-001.1,0026.32,0016.96,0016.12
2023-01-12 20:14:00,,0832.3,4.99,0.00,25.6,24.4,00.0,34.4,27.5,14.8,-001.1,0026.11,0017.06,0016.22
2023-01-12 20:15:00,,0832.3,5.00,0.00,25.7,24.5,00.0,34.4,27.5,14.6,-001.1,0026.24,0017.12,0016.28
2023-01-12 20:16:00,,0832.2,4.99,0.00,25.7,24.5,00.0,34.4,27.5,14.6,-001.0,0026.35,0017.17,0016.28
2023-01-12 20:17:00,,0832.3,5.00,0.00,25.7,24.5,00.0,34.4,27.5,14.6,-000.9,0026.55,0017.18,0016.28
2023-01-12 20:18:00,,0832.2,4.99,0.00,25.7,24.6,00.0,34.4,27.6,14.3,-001.0,0026.30,0017.04,0016.19
2023-01-12 20:19:00,,0832.2,5.00,0.00,25.7,24.6,00.0,34.4,27.6,14.0,-001.1,0025.72,0016.92,0016.05
2023-01-12 20:20:00,,0832.2,5.00,0.00,25.7,24.6,00.0,34.5,27.6,14.1,-001.1,0026.08,0016.78,0015.89
2023-01-12 20:21:00,,0832.2,5.01,0.00,25.7,24.6,00.0,34.5,27.6,14.1,-001.1,0026.29,0016.60,0015.70
2023-01-12 20:22:00,,0832.2,5.00,0.00,25.8,24.6,00.0,34.5,27.6,14.1,-001.1,0026.72,0016.50,0015.59
2023-01-12 20:23:00,,0832.2,5.00,0.00,25.8,24.6,00.0,34.5,27.6,14.4,-001.0,0027.27,0016.33,0015.46
2023-01-12 20:24:00,,0832.1,5.01,0.00,25.8,24.6,00.0,34.5,27.6,14.0,-001.0,0027.33,0016.15,0015.28
2023-01-12 20:25:00,,0832.1,5.00,0.00,25.8,24.6,00.0,34.5,27.6,14.5,-001.0,0027.53,0016.05,0015.16
2023-01-12 20:26:00,,0832.1,5.01,0.00,25.8,24.6,00.0,34.5,27.6,14.5,-001.1,0027.87,0015.99,0015.07
2023-01-12 20:27:00,,0832.1,4.99,0.00,25.8,24.6,00.0,34.5,27.6,14.4,-001.2,0027.82,0015.90,0015.02
2023-01-12 20:28:00,,0832.1,5.00,0.00,25.8,24.6,00.0,34.6,27.7,13.9,-001.2,0027.49,0015.80,0014.91
2023-01-12 20:29:00,,0832.1,5.00,0.00,25.8,24.6,00.0,34.6,27.7,13.8,-001.1,0027.28,0015.77,0014.86
2023-01-12 20:30:00,,0832.1,5.00,0.00,25.8,24.6,00.0,34.6,27.7,14.1,-001.0,0027.21,0015.76,0014.87
2023-01-12 20:31:00,,0832.0,4.99,0.00,25.8,24.6,00.0,34.6,27.7,13.8,-000.9,0026.56,0015.73,0014.88
2023-01-12 20:32:00,,0832.1,5.00,0.00,25.9,24.6,00.0,34.6,27.7,14.0,-000.7,0026.04,0015.73,0014.92
2023-01-12 20:33:00,,0832.1,5.00,0.00,25.9,24.7,00.0,34.6,27.7,14.3,-000.6,0025.70,0015.79,0014.97
2023-01-12 20:34:00,,0832.1,5.00,0.00,25.9,24.7,00.0,34.6,27.7,14.6,-000.6,0024.88,0015.84,0015.05
2023-01-12 20:35:00,,0832.1,4.99,0.00,25.9,24.7,00.0,34.6,27.8,14.1,-000.6,0024.36,0015.82,0015.09
2023-01-12 20:36:00,,0832.1,4.99,0.00,25.9,24.7,00.0,34.6,27.7,14.0,-000.6,0023.83,0015.82,0015.12
2023-01-12 20:37:00,,0832.1,5.01,0.00,25.9,24.7,00.0,34.6,27.7,14.4,-000.4,0023.44,0015.87,0015.19
2023-01-12 20:38:00,,0832.1,5.01,0.00,25.9,24.7,00.0,34.6,27.7,14.1,-000.2,0023.98,0015.89,0015.22
2023-01-12 20:39:00,,0832.1,5.00,0.00,25.9,24.7,00.0,34.7,27.7,13.7,-000.1,0024.28,0015.97,0015.28
2023-01-12 20:40:00,,0832.1,5.01,0.00,25.9,24.7,00.0,34.7,27.7,14.4,-000.1,0024.43,0016.10,0015.39
2023-01-12 20:41:00,,0832.1,5.00,0.00,25.9,24.7,00.0,34.7,27.7,14.2,-000.1,0024.47,0016.14,0015.46
2023-01-12 20:42:00,,0832.1,5.00,0.00,26.0,24.7,00.0,34.7,27.8,14.4,-000.0,0024.56,0016.21,0015.55
2023-01-12 20:43:00,,0832.1,5.00,0.00,26.0,24.8,00.0,34.7,27.8,14.2,-000.1,0024.58,0016.26,0015.61
2023-01-12 20:44:00,,0832.1,5.00,0.00,26.0,24.8,00.0,34.7,27.8,14.3,-000.2,0024.39,0016.26,0015.62
2023-01-12 20:45:00,,0832.2,5.00,0.00,26.0,24.8,00.0,34.7,27.9,14.4,-000.3,0024.40,0016.24,0015.56
2023-01-12 20:46:00,,0832.2,5.00,0.00,26.0,24.8,00.0,34.7,27.9,14.0,-000.2,0024.43,0016.19,0015.47
2023-01-12 20:47:00,,0832.1,5.00,0.00,26.0,24.9,00.0,34.7,27.9,13.5,-000.2,0024.31,0016.06,0015.29
2023-01-12 20:48:00,,0832.1,4.99,0.00,26.0,24.9,00.0,34.7,27.9,13.9,-000.3,0023.99,0015.84,0015.08
2023-01-12 20:49:00,,0832.1,5.00,0.00,26.0,24.9,00.0,34.8,27.9,13.6,-000.4,0023.01,0015.65,0014.91
2023-01-12 20:50:00,,0832.1,4.99,0.00,26.1,24.9,00.0,34.8,27.9,13.4,-000.5,0022.54,0015.49,0014.80
2023-01-12 20:51:00,,0832.1,5.00,0.00,26.1,24.9,00.0,34.8,27.9,13.3,-000.5,0022.30,0015.24,0014.60
2023-01-12 20:52:00,,0832.1,5.01,0.00,26.1,24.9,00.0,34.8,27.9,13.5,-000.5,0022.50,0015.06,0014.41
2023-01-12 20:53:00,,0832.1,5.01,0.00,26.1,24.9,00.0,34.8,27.9,13.6,-000.5,0022.21,0014.87,0014.21
2023-01-12 20:54:00,,0832.1,5.00,0.00,26.1,24.9,00.0,34.8,27.9,13.4,-000.4,0021.92,0014.69,0014.04
2023-01-12 20:55:00,,0832.1,5.00,0.00,26.1,24.9,00.0,34.8,27.9,13.6,-000.3,0021.74,0014.49,0013.85
2023-01-12 20:56:00,,0832.1,5.01,0.00,26.1,25.0,00.0,34.8,28.0,13.8,-000.3,0021.88,0014.39,0013.74
2023-01-12 20:57:00,,0832.1,4.99,0.00,26.1,25.0,00.0,34.8,28.0,13.6,-000.4,0021.87,0014.30,0013.68
2023-01-12 20:58:00,,0832.1,5.00,0.00,26.2,25.0,00.0,34.9,28.0,13.6,-000.4,0021.87,0014.27,0013.70
2023-01-12 20:59:00,,0832.1,4.99,0.00,26.2,25.0,00.0,34.9,27.9,14.0,-000.3,0022.49,0014.31,0013.75
